Terug naar catalogus

TITAN 3C TRANSTAGE R/B

ActiefMEO
NORAD 10942·ROCKET BODY·🇺🇸 United States

Gelanceerd Jun 10, 1978 vanaf Cape Canaveral Space Force Station

Loading…

Volgende Passages (komende 24 uur)

TLE

VersSource: Space-Track

Epoch: Sep 13, 2026, 22:52 UTC

1 10942U 78058B   26256.95331142 -.00000005  00000-0  00000-0 0  9999
2 10942  10.3310  19.4332 1420881 133.8831 238.8250  0.99625867 27659

Volg TITAN 3C TRANSTAGE R/B in realtime met AllMySat

Download on the App Store